星链-31221 (STARLINK-31221 )

导读

STARLINK-31221是美国太空探索技术公司Starlink卫星互联网星座的成员,于2024年1月29日发射,为星座扩容提供支撑。该卫星属于低轨通信卫星,主要服务于全球范围的卫星互联网接入,助力完成偏远地区网络覆盖,同时为航空、海运等移动场景提供宽带连接服务,推进Starlink星座全球组网进程。

Basic Information
目录编号:
58896
目录名称:
STARLINK-31221
国际标识:
2024-020W
轨道中心:
EARTH
卫星名称:
星链-31221
卫星全名:
星链-31221 (STARLINK-31221 )
卫星状态:
已陨落 最后检测时间 2025-10-08
发射日期:
2024-01-29 UTC
国别 :
美国 (US)
星等 :
--
Orbit Information
数据来源 国际轨道数据
星历时间: 2025-10-08T17:45:05+0800
轨道信息已过期252天
半长轴: 6581.892km
偏心率: 0.0001646
轨道倾角: 53.117°
近地点辐角 23.608°
升交点赤经 278.773°
平近点角 336.503°
近地点: 202.673km
远地点: 204.841km
周期: 88.570分钟
每日圈数: 16.258359
Detailed Information
固有亮度:
5
最大亮度:
0.3
卫星平台:
Starlink v2.0 mini
覆盖范围:
全球
运营商:
太空探索技术公司
运营商所在国:
美国
制造商(研发单位):
太空探索技术公司
制造商所在国:
美国
使用方式:
暂无
Satellite Introduction
星链(Starlink)计划是由太空探索技术公司(SpaceX)提出的一个巨型低轨卫星互联网星座项目,计划在2019年至2024年间在太空搭建由约1.2万颗卫星组成的“星链”网络,其中1584颗将部署在地球上空550千米处的近地轨道,并从2020年开始工作。该卫星仍在工作。